This is the latest recevied weather packets stored in our database for station/object DH9SB-6. If no packets are shown the sender has not sent any weather packets the latest 10 day(s).
| Time | Temp. | Humidity | Pressure | Rain* | Wind** | Luminosity | Snow |
|---|---|---|---|---|---|---|---|
| 1778155350 | 12.78° C | 72% | - | 0 mm | - | - | - |
| 1778154870 | 13.89° C | 71% | - | 0 mm | - | - | - |
| 1778154151 | 13.89° C | 71% | - | 0 mm | - | - | - |
| 1778153574 | 13.89° C | 72% | - | 0 mm | - | - | - |
| 1778152998 | 13.89° C | 80% | - | 0 mm | - | - | - |
| 1778152376 | 13.33° C | 85% | - | 0 mm | - | - | - |
| 1778151750 | 12.22° C | 90% | - | 0 mm | - | - | - |
| 1778151174 | 11.11° C | 90% | - | 0 mm | - | - | - |
| 1778150551 | 11.11° C | 89% | - | 0 mm | - | - | - |
| 1778149974 | 11.11° C | 89% | - | 0 mm | - | - | - |
| 1778149351 | 10.56° C | 87% | - | 0 mm | - | - | - |
| 1778148774 | 11.11° C | 86% | - | 0 mm | - | - | - |
| 1778148150 | 11.11° C | 85% | - | 0 mm | - | - | - |
| 1778147577 | 11.11° C | 82% | - | 0 mm | - | - | - |
| 1778146950 | 11.67° C | 80% | - | 0 mm | - | - | - |
| 1778146374 | 11.67° C | 80% | - | 0 mm | - | - | - |
| 1778145752 | 11.67° C | 81% | - | 0 mm | - | - | - |
| 1778145175 | 11.67° C | 80% | - | 0 mm | - | - | - |
| 1778144550 | 11.67° C | 80% | - | 0 mm | - | - | - |
| 1778143979 | 12.22° C | 83% | - | 0 mm | - | - | - |
| 1778143350 | 11.67° C | 84% | - | 0 mm | - | - | - |
| 1778142774 | 11.67° C | 88% | - | 0 mm | - | - | - |
| 1778142151 | 11.67° C | 92% | - | 0 mm | - | - | - |
| 1778141625 | 10.56° C | 94% | - | 0 mm | - | - | - |
| 1778140954 | 10.56° C | 96% | - | 0 mm | - | - | - |
* Rain latest hour (hover to see other rain measurements)
** Current wind speed in m/s (hover to see current wind gust speed)